AXM6314 WMKK-WMKL

Flight info

Callsign AXM6314
Flight time 0h 42m
Altitude 28000
Route ATIMU1F ATIMU Y506 VPG W525 KAPKO KAPKO1E
Aircraft A320/M-SDE3FGHIRWY/LB1

Departure

Time 2026-05-01 09:43
Airport Kuala Lumpur International Airport (WMKK)

Arrival

Time 2026-05-01 10:25
Airport Langkawi International Airport (WMKL)
Time Latitude Longitude Altitude Speed Heading
2026-05-01 09:26 2.73953 101.68353 40 ft 0 kts 326°
2026-05-01 09:29 2.73943 101.68359 40 ft 4 kts 326°
2026-05-01 09:29 2.73922 101.68375 39 ft 4 kts 310°
2026-05-01 09:30 2.73923 101.68407 40 ft 0 kts 236°
2026-05-01 09:32 2.73918 101.68401 41 ft 4 kts 230°
2026-05-01 09:32 2.73830 101.68342 42 ft 12 kts 237°
2026-05-01 09:32 2.73786 101.68276 42 ft 11 kts 235°
2026-05-01 09:33 2.73747 101.68219 41 ft 9 kts 235°
2026-05-01 09:33 2.73705 101.68171 40 ft 9 kts 201°
2026-05-01 09:33 2.73595 101.68238 40 ft 16 kts 146°
2026-05-01 09:34 2.73475 101.68319 40 ft 25 kts 146°
2026-05-01 09:34 2.73344 101.68407 40 ft 22 kts 146°
2026-05-01 09:34 2.73149 101.68538 40 ft 14 kts 146°
2026-05-01 09:35 2.73073 101.68589 40 ft 12 kts 146°
2026-05-01 09:35 2.72949 101.68673 40 ft 9 kts 146°
2026-05-01 09:35 2.72899 101.68707 40 ft 8 kts 146°
2026-05-01 09:36 2.72831 101.68752 39 ft 16 kts 146°
2026-05-01 09:36 2.72720 101.68827 39 ft 22 kts 146°
2026-05-01 09:36 2.72604 101.68905 39 ft 20 kts 146°
2026-05-01 09:36 2.72492 101.68980 38 ft 19 kts 146°
2026-05-01 09:37 2.72382 101.69054 40 ft 19 kts 146°
2026-05-01 09:37 2.72178 101.69192 40 ft 16 kts 146°
2026-05-01 09:37 2.72088 101.69252 40 ft 15 kts 146°
2026-05-01 09:38 2.71921 101.69365 40 ft 15 kts 146°
2026-05-01 09:38 2.71834 101.69396 40 ft 13 kts 204°
2026-05-01 09:38 2.71772 101.69348 39 ft 11 kts 176°
2026-05-01 09:39 2.71610 101.69445 39 ft 13 kts 146°
2026-05-01 09:39 2.71539 101.69493 38 ft 11 kts 146°
2026-05-01 09:39 2.71463 101.69544 38 ft 15 kts 146°
2026-05-01 09:40 2.71362 101.69612 38 ft 20 kts 146°
2026-05-01 09:40 2.71100 101.69789 39 ft 25 kts 146°
2026-05-01 09:40 2.70961 101.69869 39 ft 13 kts 180°
2026-05-01 09:41 2.70928 101.69836 40 ft 6 kts 234°
2026-05-01 09:41 2.70885 101.69778 40 ft 5 kts 234°
2026-05-01 09:41 2.70868 101.69745 39 ft 7 kts 265°
2026-05-01 09:42 2.70912 101.69705 38 ft 13 kts 325°
2026-05-01 09:42 2.71121 101.69565 38 ft 69 kts 326°
2026-05-01 09:42 2.72574 101.68587 40 ft 173 kts 326°
2026-05-01 09:43 2.74767 101.67120 1020 ft 191 kts 326°
2026-05-01 09:43 2.75858 101.66319 1600 ft 202 kts 312°
2026-05-01 09:43 2.76450 101.65008 1826 ft 220 kts 277°
2026-05-01 09:44 2.76502 101.61630 2582 ft 263 kts 267°
2026-05-01 09:44 2.76428 101.59776 3339 ft 270 kts 267°
2026-05-01 09:44 2.76376 101.57880 4111 ft 276 kts 269°
2026-05-01 09:45 2.76432 101.55945 4881 ft 281 kts 281°
2026-05-01 09:45 2.77835 101.52250 6439 ft 288 kts 294°
2026-05-01 09:45 2.78640 101.50402 7197 ft 292 kts 294°
2026-05-01 09:46 2.79460 101.48536 7954 ft 295 kts 294°
2026-05-01 09:46 2.80289 101.46644 8706 ft 299 kts 294°
2026-05-01 09:46 2.81126 101.44733 9458 ft 302 kts 294°
2026-05-01 09:46 2.81971 101.42791 10165 ft 306 kts 294°
2026-05-01 09:47 2.82844 101.40777 10445 ft 327 kts 294°
2026-05-01 09:47 2.83794 101.38620 10594 ft 350 kts 297°
2026-05-01 09:47 2.85099 101.36482 10709 ft 370 kts 308°
2026-05-01 09:47 2.86853 101.34549 11098 ft 379 kts 316°
2026-05-01 09:48 2.88740 101.32682 11669 ft 384 kts 316°
2026-05-01 09:48 2.90639 101.30785 12283 ft 387 kts 316°
2026-05-01 09:48 2.92546 101.28872 12882 ft 391 kts 316°
2026-05-01 09:48 2.94474 101.26936 13470 ft 394 kts 316°
2026-05-01 09:49 2.96416 101.24985 13991 ft 397 kts 316°
2026-05-01 09:49 2.98375 101.23018 14483 ft 400 kts 316°
2026-05-01 09:49 3.00348 101.21039 14983 ft 404 kts 316°
2026-05-01 09:49 3.02339 101.19044 15484 ft 406 kts 316°
2026-05-01 09:50 3.04317 101.17069 15957 ft 409 kts 316°
2026-05-01 09:50 3.06368 101.15022 16422 ft 412 kts 316°
2026-05-01 09:50 3.08377 101.13016 16863 ft 415 kts 316°
2026-05-01 09:50 3.10424 101.10967 17321 ft 418 kts 316°
2026-05-01 09:51 3.12486 101.08899 17760 ft 421 kts 316°
2026-05-01 09:51 3.14562 101.06817 18195 ft 424 kts 316°
2026-05-01 09:51 3.16653 101.04723 18577 ft 426 kts 316°
2026-05-01 09:51 3.18755 101.02619 18951 ft 429 kts 317°
2026-05-01 09:52 3.21048 101.00712 19304 ft 429 kts 328°
2026-05-01 09:52 3.23656 100.99276 19661 ft 429 kts 339°
2026-05-01 09:52 3.26491 100.98359 20018 ft 428 kts 350°
2026-05-01 09:52 3.29440 100.97996 20373 ft 428 kts
2026-05-01 09:53 3.32422 100.98004 20729 ft 430 kts
2026-05-01 09:53 3.35424 100.98019 21091 ft 432 kts
2026-05-01 09:53 3.38438 100.98028 21430 ft 434 kts
2026-05-01 09:53 3.41425 100.98033 21785 ft 437 kts
2026-05-01 09:54 3.44471 100.98040 22132 ft 439 kts
2026-05-01 09:54 3.47530 100.98049 22466 ft 441 kts
2026-05-01 09:54 3.50608 100.98061 22800 ft 443 kts
2026-05-01 09:54 3.53694 100.98073 23125 ft 445 kts
2026-05-01 09:55 3.56797 100.98085 23437 ft 447 kts
2026-05-01 09:55 3.59918 100.98096 23693 ft 449 kts
2026-05-01 09:55 3.63048 100.98104 23954 ft 451 kts
2026-05-01 09:55 3.66191 100.97864 24197 ft 455 kts 352°
2026-05-01 09:56 3.69273 100.97103 24454 ft 459 kts 343°
2026-05-01 09:56 3.72233 100.95869 24695 ft 462 kts 338°
2026-05-01 09:56 3.75171 100.94548 24953 ft 464 kts 338°
2026-05-01 09:56 3.78125 100.93227 25208 ft 466 kts 338°
2026-05-01 09:57 3.81090 100.91910 25461 ft 467 kts 338°
2026-05-01 09:57 3.84065 100.90590 25706 ft 469 kts 338°
2026-05-01 09:57 3.87052 100.89265 25949 ft 470 kts 338°
2026-05-01 09:57 3.90048 100.87936 26190 ft 472 kts 338°
2026-05-01 09:58 3.93055 100.86600 26421 ft 473 kts 338°
2026-05-01 09:58 3.96069 100.85257 26652 ft 475 kts 338°
2026-05-01 09:58 3.99090 100.83908 26882 ft 476 kts 338°
2026-05-01 09:58 4.02122 100.82554 27095 ft 478 kts 338°
2026-05-01 09:59 4.05162 100.81198 27326 ft 479 kts 338°
2026-05-01 09:59 4.08212 100.79843 27546 ft 481 kts 338°
2026-05-01 09:59 4.11279 100.78481 27749 ft 482 kts 338°
2026-05-01 09:59 4.14340 100.77122 27833 ft 481 kts 338°
2026-05-01 10:00 4.17396 100.75761 27843 ft 480 kts 338°
2026-05-01 10:00 4.20439 100.74397 27841 ft 479 kts 338°
2026-05-01 10:00 4.23478 100.73028 27810 ft 479 kts 338°
2026-05-01 10:00 4.26517 100.71660 27810 ft 479 kts 338°
2026-05-01 10:01 4.29556 100.70293 27812 ft 479 kts 338°
2026-05-01 10:01 4.32592 100.68932 27812 ft 479 kts 338°
2026-05-01 10:01 4.35637 100.67567 27816 ft 479 kts 338°
2026-05-01 10:01 4.38674 100.66204 27819 ft 479 kts 338°
2026-05-01 10:02 4.41672 100.64857 27822 ft 479 kts 338°
2026-05-01 10:02 4.44714 100.63493 27824 ft 478 kts 338°
2026-05-01 10:02 4.47759 100.62159 27826 ft 478 kts 339°
2026-05-01 10:02 4.50817 100.60851 27828 ft 478 kts 339°
2026-05-01 10:03 4.53887 100.59557 27832 ft 478 kts 339°
2026-05-01 10:03 4.56950 100.58270 27836 ft 477 kts 339°
2026-05-01 10:03 4.60013 100.56980 27833 ft 477 kts 339°
2026-05-01 10:03 4.63071 100.55684 27831 ft 477 kts 339°
2026-05-01 10:04 4.66127 100.54383 27827 ft 477 kts 339°
2026-05-01 10:04 4.69177 100.53082 27825 ft 477 kts 339°
2026-05-01 10:04 4.72233 100.51773 27823 ft 477 kts 339°
2026-05-01 10:04 4.75279 100.50465 27822 ft 477 kts 339°
2026-05-01 10:05 4.78326 100.49155 27818 ft 477 kts 339°
2026-05-01 10:05 4.81379 100.47846 27817 ft 477 kts 339°
2026-05-01 10:05 4.84423 100.46528 27819 ft 477 kts 338°
2026-05-01 10:05 4.87445 100.45154 27815 ft 477 kts 337°
2026-05-01 10:06 4.90447 100.43738 27823 ft 477 kts 336°
2026-05-01 10:06 4.93440 100.42301 27818 ft 477 kts 336°
2026-05-01 10:06 4.96436 100.40858 27819 ft 477 kts 336°
2026-05-01 10:06 4.99430 100.39428 27818 ft 477 kts 336°
2026-05-01 10:07 5.02433 100.38010 27818 ft 477 kts 337°
2026-05-01 10:07 5.05446 100.36599 27820 ft 477 kts 337°
2026-05-01 10:07 5.08457 100.35198 27824 ft 477 kts 337°
2026-05-01 10:07 5.11468 100.33797 27819 ft 477 kts 337°
2026-05-01 10:08 5.17493 100.30986 27255 ft 480 kts 337°
2026-05-01 10:08 5.20540 100.29558 26024 ft 486 kts 336°
2026-05-01 10:08 5.23612 100.28113 24896 ft 491 kts 336°
2026-05-01 10:09 5.26703 100.26658 23996 ft 489 kts 336°
2026-05-01 10:09 5.29779 100.25210 23072 ft 487 kts 336°
2026-05-01 10:09 5.32833 100.23762 22185 ft 484 kts 336°
2026-05-01 10:09 5.35856 100.22317 21382 ft 478 kts 336°
2026-05-01 10:10 5.38840 100.20882 20604 ft 474 kts 336°
2026-05-01 10:10 5.41799 100.19457 19842 ft 470 kts 336°
2026-05-01 10:10 5.47649 100.16639 18372 ft 463 kts 336°
2026-05-01 10:11 5.50539 100.15252 17606 ft 459 kts 336°
2026-05-01 10:11 5.53401 100.13881 16931 ft 452 kts 336°
2026-05-01 10:11 5.55311 100.12967 16506 ft 448 kts 336°
2026-05-01 10:11 5.58110 100.11627 15880 ft 442 kts 336°
2026-05-01 10:12 5.60865 100.10310 15291 ft 436 kts 336°
2026-05-01 10:12 5.63586 100.09011 14708 ft 430 kts 336°
2026-05-01 10:12 5.68918 100.06465 13553 ft 420 kts 336°
2026-05-01 10:13 5.71539 100.05210 12927 ft 415 kts 336°
2026-05-01 10:13 5.74124 100.03968 12313 ft 410 kts 336°
2026-05-01 10:13 5.76685 100.02738 11675 ft 406 kts 336°
2026-05-01 10:14 5.81660 100.00348 10899 ft 386 kts 336°
2026-05-01 10:14 5.84026 99.99211 10778 ft 369 kts 336°
2026-05-01 10:14 5.86294 99.98122 10662 ft 354 kts 336°
2026-05-01 10:14 5.88469 99.97079 10544 ft 340 kts 336°
2026-05-01 10:15 5.90563 99.96075 10430 ft 328 kts 336°
2026-05-01 10:15 5.92589 99.95105 10314 ft 316 kts 336°
2026-05-01 10:15 5.94505 99.94096 10147 ft 309 kts 328°
2026-05-01 10:15 5.96123 99.92705 10025 ft 306 kts 313°
2026-05-01 10:16 5.97368 99.90968 9963 ft 308 kts 302°
2026-05-01 10:16 5.98496 99.89113 9494 ft 314 kts 302°
2026-05-01 10:16 6.00744 99.85457 8484 ft 304 kts 303°
2026-05-01 10:17 6.01849 99.83664 7887 ft 299 kts 303°
2026-05-01 10:17 6.04020 99.80154 6743 ft 290 kts 303°
2026-05-01 10:17 6.05074 99.78449 6238 ft 285 kts 303°
2026-05-01 10:18 6.07114 99.75139 5228 ft 272 kts 303°
2026-05-01 10:18 6.08097 99.73541 4755 ft 266 kts 303°
2026-05-01 10:18 6.09060 99.71974 4282 ft 261 kts 303°
2026-05-01 10:19 6.10002 99.70441 3820 ft 256 kts 303°
2026-05-01 10:19 6.10913 99.68963 3668 ft 240 kts 305°
2026-05-01 10:19 6.11957 99.67724 3609 ft 227 kts 321°
2026-05-01 10:20 6.14486 99.66075 3420 ft 212 kts 332°
2026-05-01 10:20 6.15745 99.65321 3326 ft 211 kts 332°
2026-05-01 10:20 6.17011 99.64560 3231 ft 212 kts 332°
2026-05-01 10:20 6.18341 99.63965 3008 ft 208 kts 352°
2026-05-01 10:21 6.19738 99.64008 2762 ft 196 kts 20°
2026-05-01 10:21 6.21969 99.65339 2304 ft 180 kts 37°
2026-05-01 10:21 6.22971 99.66023 2102 ft 166 kts 37°
2026-05-01 10:22 6.24764 99.67248 1676 ft 150 kts 37°
2026-05-01 10:22 6.26509 99.68441 1302 ft 151 kts 37°
2026-05-01 10:23 6.27381 99.69037 1100 ft 152 kts 37°
2026-05-01 10:23 6.29108 99.70223 732 ft 145 kts 37°
2026-05-01 10:23 6.29942 99.70795 521 ft 145 kts 36°
2026-05-01 10:24 6.31566 99.71908 158 ft 137 kts 33°
2026-05-01 10:24 6.32956 99.72851 35 ft 83 kts 34°
2026-05-01 10:25 6.33562 99.73265 37 ft 39 kts 34°
2026-05-01 10:25 6.33806 99.73267 34 ft 14 kts 307°
2026-05-01 10:26 6.33874 99.73197 36 ft 14 kts 336°
2026-05-01 10:26 6.33914 99.73149 36 ft 5 kts 304°